Regional Weather Roundup
Issued by NWS

Home | Current Version | Previous Version | Text Only | Print | Product List | Glossary Off
Versions: 1 2 3 4 5 6 7 8 9 10 11 12 13 14 15 16 17 18 19 20 21 22 23 24 25 26 27 28 29 30 31 32 33 34 35 36 37 38 39 40 41 42 43 44 45 46 47 48 49 50

045
ASUS45 KABQ 251910
RWRNM
NEW MEXICO REGIONAL WEATHER ROUNDUP
NATIONAL WEATHER SERVICE ALBUQUERQUE NM
100 PM MDT TUE APR 25 2017

NOTE: "FAIR" MEANS FEW OR NO CLOUDS BELOW 12,000 FEET AGL WITH NO
       SIGNIFICANT WEATHER OR OBSTRUCTIONS TO VISION.

      THIS PRODUCT IS RELEASED AS TWO VERSIONS.  ONE VERSION NEAR
      THE TOP OF THE HOUR CONTAINING PRELIMINARY DATA FROM ALBUQUERQUE
      AND OTHER STATIONS.  A FINAL VERSION WITH ADDITIONAL DATA IS
      ISSUED ABOUT 10 MINUTES AFTER THE HOUR.

NMZ501-503-504-510>518-252000-
NORTHWEST PLATEAU/NORTHCENTRAL MOUNTAINS

CITY           SKY/WX    TMP DP  RH WIND       PRES   REMARKS
FARMINGTON     PTSUNNY   49  38  65 W12       29.68F
LOS ALAMOS     PTSUNNY   50  34  54 W10       29.69F
SANTA FE       LGT RAIN  45  45 100 SW17      29.70S
TAOS             N/A     50  34  53 SW18G28   29.65F
ANGEL FIRE     DRIZZLE   43  33  69 W13       29.67F

$$
NMZ402-403-502-505>509-252000-
WESTCENTRAL MOUNTAINS/SOUTHWEST MOUNTAINS

CITY           SKY/WX    TMP DP  RH WIND       PRES   REMARKS
GALLUP         PTSUNNY   52  41  66 SW17      29.74F
GRANTS         RAIN      45  39  79 W22G31    29.78S
SILVER CITY    FAIR      69  31  24 W28G44    29.77S

$$
NMZ407-409-411-412-252000-
SOUTHERN DESERTS

CITY           SKY/WX    TMP DP  RH WIND       PRES   REMARKS
DEMING         FAIR      78  27  15 W29G43    29.70F
LAS CRUCES     FAIR      79  24  13 W29G39    29.70F
HOLLOMAN AFB   FAIR      76  23  13 W31G40    29.68F
ALAMOGORDO     CLOUDY    73  23  15 W26G32    29.68F
T OR C         FAIR      75  26  16 W18G35    29.66F

$$
NMZ519>523-252000-
CENTRAL VALLEYS/CENTRAL HIGHLANDS

CITY           SKY/WX    TMP DP  RH WIND       PRES   REMARKS
ALBUQUERQUE    PTSUNNY   50  43  77 CALM      29.72F
DOUBLE EAGLE   PTSUNNY   48  43  81 SW21      29.71F
MORIARTY ARPT  RAIN      50  41  70 W18       29.73S
CLINES CORNERS LGT RAIN  46  38  73 W28G38    29.72S
BELEN          CLOUDY    59  33  36 W17G23    29.70F
SOCORRO        FAIR      69  30  23 W10G16    29.66F

$$
NMZ524>526-539-540-252000-
SOUTHCENTRAL MOUNTAINS

CITY           SKY/WX    TMP DP  RH WIND       PRES   REMARKS
RUIDOSO        FAIR      61  21  21 SW30G43   29.73F

$$
NMZ527>531-252000-
NORTHEAST HIGHLANDS/NORTHEAST PLAINS

CITY           SKY/WX    TMP DP  RH WIND       PRES   REMARKS
LAS VEGAS      FAIR      58  34  40 SW30G36   29.61F
RATON          FAIR      60  30  32 S12G18    29.54F
CLAYTON        CLOUDY    51  43  74 NE16      29.57F

$$
NMZ532>537-252000-
EASTCENTRAL PLAINS

CITY           SKY/WX    TMP DP  RH WIND       PRES   REMARKS
SANTA ROSA     FAIR      64  36  35 W36G46    29.58F
TUCUMCARI      FAIR      73  37  27 W32G39    29.50F
CANNON AFB     PTSUNNY   73  35  25 W32G43    29.55S
CLOVIS AIRPORT PTSUNNY   73  36  25 W31G41    29.55F

$$
NMZ028-029-538-252000-
SOUTHEAST PLAINS

CITY           SKY/WX    TMP DP  RH WIND       PRES   REMARKS
ROSWELL        FAIR      83  28  13 W26G40    29.58S
ARTESIA        FAIR      84  30  14 W32G43    29.55F
CARLSBAD       FAIR      86  22   9 W24G40    29.55S
HOBBS          SUNNY     82  27  13 SW31G41   29.57F


$$




USA.gov is the U.S. government's official web portal to all federal, state and local government web resources and services.